Time,TemperatureF,DewpointF,PressureIn,WindDirection,WindDirectionDegrees,WindSpeedMPH,WindSpeedGustMPH,Humidity,HourlyPrecipIn,Conditions,Clouds,dailyrainin,SoftwareType,DateUTC
2013-05-24 00:00:00,68.7,56.9,30.00,West,263,1.0,2.0,66,0.00,,SCT090,0.00,VWS V14.01,2013-05-24 04:00:00,
2013-05-24 00:01:00,68.7,57.3,30.00,NW,319,1.0,2.0,67,0.00,,SCT090,0.00,VWS V14.01,2013-05-24 04:01:00,
2013-05-24 00:06:00,68.8,57.0,30.00,NW,306,0.0,2.0,66,0.00,,SCT090,0.00,VWS V14.01,2013-05-24 04:06:00,
2013-05-24 00:11:00,68.8,57.4,30.00,SW,225,0.0,4.0,67,0.00,,SCT090,0.00,VWS V14.01,2013-05-24 04:11:00,
2013-05-24 00:16:00,68.7,56.9,30.00,North,355,0.0,4.0,66,0.00,,SCT090,0.00,VWS V14.01,2013-05-24 04:16:00,
2013-05-24 00:21:00,68.6,57.2,30.00,WNW,282,0.0,4.0,67,0.00,,SCT090,0.00,VWS V14.01,2013-05-24 04:21:00,
2013-05-24 00:26:00,68.4,57.0,30.00,WNW,287,0.0,4.0,67,0.00,,SCT090,0.00,VWS V14.01,2013-05-24 04:26:00,
2013-05-24 00:30:00,68.3,56.5,30.00,WNW,290,0.0,4.0,66,0.00,,CLR,0.00,VWS V14.01,2013-05-24 04:30:00,
2013-05-24 00:31:00,68.3,56.9,30.00,WNW,290,0.0,2.0,67,0.00,,SCT090,0.00,VWS V14.01,2013-05-24 04:31:00,
2013-05-24 00:36:00,68.1,57.6,30.00,WNW,302,0.0,2.0,69,0.00,,SCT090,0.00,VWS V14.01,2013-05-24 04:36:00,
2013-05-24 00:41:00,67.8,56.9,30.00,WNW,301,2.0,2.0,68,0.00,,FEW060,0.00,VWS V14.01,2013-05-24 04:41:00,
2013-05-24 00:46:00,67.7,56.8,30.01,West,280,0.0,5.0,68,0.00,,FEW060,0.00,VWS V14.01,2013-05-24 04:46:00,
2013-05-24 00:51:00,67.5,57.0,30.01,WSW,247,0.0,5.0,69,0.00,,SCT090,0.00,VWS V14.01,2013-05-24 04:51:00,
2013-05-24 00:56:00,67.3,57.6,30.01,WSW,246,0.0,5.0,71,0.00,,FEW060,0.00,VWS V14.01,2013-05-24 04:56:00,
2013-05-24 01:00:00,67.1,57.0,30.02,West,272,3.0,5.0,70,0.00,,CLR,0.00,VWS V14.01,2013-05-24 05:00:00,
2013-05-24 01:01:00,67.1,57.0,30.02,West,272,0.0,3.0,70,0.00,,FEW060,0.00,VWS V14.01,2013-05-24 05:01:00,
2013-05-24 01:06:00,67.1,56.6,30.02,West,264,0.0,3.0,69,0.00,,FEW060,0.00,VWS V14.01,2013-05-24 05:06:00,
2013-05-24 01:11:00,67.0,56.9,30.02,WSW,254,0.0,4.0,70,0.00,,FEW060,0.00,VWS V14.01,2013-05-24 05:11:00,
2013-05-24 01:16:00,66.9,56.8,30.02,SW,222,0.0,4.0,70,0.00,,FEW060,0.00,VWS V14.01,2013-05-24 05:16:00,
2013-05-24 01:21:00,66.7,57.0,30.02,SW,223,0.0,4.0,71,0.00,,FEW060,0.00,VWS V14.01,2013-05-24 05:21:00,
2013-05-24 01:26:00,66.5,56.8,30.02,WNW,295,3.0,6.0,71,0.00,,FEW060,0.00,VWS V14.01,2013-05-24 05:26:00,
2013-05-24 01:30:00,66.6,56.5,30.02,NNW,344,0.0,6.0,70,0.00,,CLR,0.00,VWS V14.01,2013-05-24 05:30:00,
2013-05-24 01:31:00,66.6,56.5,30.02,WNW,283,4.0,4.0,70,0.00,,FEW060,0.00,VWS V14.01,2013-05-24 05:31:00,
2013-05-24 01:36:00,66.7,57.0,30.02,North,10,0.0,4.0,71,0.00,,CLR,0.00,VWS V14.01,2013-05-24 05:36:00,
2013-05-24 01:41:00,66.6,56.5,30.02,NNW,338,0.0,5.0,70,0.00,,CLR,0.00,VWS V14.01,2013-05-24 05:41:00,
2013-05-24 01:46:00,66.5,56.0,30.02,NE,43,4.0,5.0,69,0.00,,CLR,0.00,VWS V14.01,2013-05-24 05:46:00,
2013-05-24 01:51:00,66.5,56.4,30.02,WNW,289,0.0,5.0,70,0.00,,CLR,0.00,VWS V14.01,2013-05-24 05:51:00,
2013-05-24 01:56:00,66.5,56.0,30.02,NW,317,6.0,6.0,69,0.00,,CLR,0.00,VWS V14.01,2013-05-24 05:56:00,
2013-05-24 02:00:00,66.5,56.0,30.02,NW,318,0.0,6.0,69,0.00,,CLR,0.00,VWS V14.01,2013-05-24 06:00:00,
2013-05-24 02:01:00,66.5,55.6,30.02,SW,233,1.0,3.0,68,0.00,,CLR,0.00,VWS V14.01,2013-05-24 06:01:00,
2013-05-24 02:06:00,66.3,55.4,30.02,NNW,347,0.0,4.0,68,0.00,,CLR,0.00,VWS V14.01,2013-05-24 06:06:00,
2013-05-24 02:11:00,66.2,55.7,30.02,WSW,246,3.0,4.0,69,0.00,,CLR,0.00,VWS V14.01,2013-05-24 06:11:00,
2013-05-24 02:16:00,66.3,55.4,30.01,NNW,347,0.0,8.0,68,0.00,,CLR,0.00,VWS V14.01,2013-05-24 06:16:00,
2013-05-24 02:21:00,66.2,55.3,30.02,WSW,247,0.0,8.0,68,0.00,,CLR,0.00,VWS V14.01,2013-05-24 06:21:00,
2013-05-24 02:26:00,66.0,55.2,30.02,SW,228,1.0,8.0,68,0.00,,CLR,0.00,VWS V14.01,2013-05-24 06:26:00,
2013-05-24 02:30:00,65.9,55.0,30.02,NNW,331,3.0,8.0,68,0.00,,CLR,0.00,VWS V14.01,2013-05-24 06:30:00,
2013-05-24 02:31:00,65.9,55.0,30.02,NNW,338,3.0,3.0,68,0.00,,CLR,0.00,VWS V14.01,2013-05-24 06:31:00,
2013-05-24 02:36:00,65.8,55.4,30.02,NW,313,4.0,7.0,69,0.00,,CLR,0.00,VWS V14.01,2013-05-24 06:36:00,
2013-05-24 02:41:00,65.6,55.2,30.02,North,360,0.0,7.0,69,0.00,,CLR,0.00,VWS V14.01,2013-05-24 06:41:00,
2013-05-24 02:46:00,65.5,55.5,30.01,WSW,239,0.0,7.0,70,0.00,,CLR,0.00,VWS V14.01,2013-05-24 06:46:00,
2013-05-24 02:51:00,65.3,55.3,30.01,WSW,240,0.0,7.0,70,0.00,,CLR,0.00,VWS V14.01,2013-05-24 06:51:00,
2013-05-24 02:56:00,65.1,55.1,30.02,NNE,22,1.0,7.0,70,0.00,,CLR,0.00,VWS V14.01,2013-05-24 06:56:00,
2013-05-24 03:00:00,64.9,54.9,30.02,NNE,19,0.0,7.0,70,0.00,,CLR,0.00,VWS V14.01,2013-05-24 07:00:00,
2013-05-24 03:01:00,64.9,55.3,30.01,West,277,1.0,2.0,71,0.00,,CLR,0.00,VWS V14.01,2013-05-24 07:01:00,
2013-05-24 03:06:00,64.7,55.1,30.01,WNW,283,0.0,2.0,71,0.00,,CLR,0.00,VWS V14.01,2013-05-24 07:06:00,
2013-05-24 03:11:00,64.4,55.2,30.02,WNW,289,0.0,3.0,72,0.00,,CLR,0.00,VWS V14.01,2013-05-24 07:11:00,
2013-05-24 03:16:00,64.2,55.0,30.02,WSW,246,2.0,3.0,72,0.00,,CLR,0.00,VWS V14.01,2013-05-24 07:16:00,
2013-05-24 03:21:00,64.2,55.4,30.02,SSW,210,0.0,4.0,73,0.00,,CLR,0.00,VWS V14.01,2013-05-24 07:21:00,
2013-05-24 03:26:00,64.1,55.3,30.02,WNW,302,0.0,6.0,73,0.00,,CLR,0.00,VWS V14.01,2013-05-24 07:26:00,
2013-05-24 03:30:00,64.0,55.2,30.02,North,350,1.0,8.0,73,0.00,,CLR,0.00,VWS V14.01,2013-05-24 07:30:00,
2013-05-24 03:31:00,64.0,55.2,30.02,NNE,32,0.0,2.0,73,0.00,,CLR,0.00,VWS V14.01,2013-05-24 07:31:00,
2013-05-24 03:36:00,63.9,55.1,30.02,North,355,2.0,4.0,73,0.00,,CLR,0.00,VWS V14.01,2013-05-24 07:36:00,
2013-05-24 03:41:00,63.7,54.9,30.02,NE,36,0.0,4.0,73,0.00,,CLR,0.00,VWS V14.01,2013-05-24 07:41:00,
2013-05-24 03:46:00,63.6,55.2,30.03,SE,125,0.0,4.0,74,0.00,,CLR,0.00,VWS V14.01,2013-05-24 07:46:00,
2013-05-24 03:51:00,63.4,55.0,30.02,SE,135,0.0,4.0,74,0.00,,CLR,0.00,VWS V14.01,2013-05-24 07:51:00,
2013-05-24 03:56:00,63.2,54.8,30.03,NW,323,0.0,5.0,74,0.00,,CLR,0.00,VWS V14.01,2013-05-24 07:56:00,
2013-05-24 04:00:00,63.1,55.1,30.03,WNW,286,0.0,5.0,75,0.00,,CLR,0.00,VWS V14.01,2013-05-24 08:00:00,
2013-05-24 04:01:00,63.1,55.1,30.03,WNW,282,0.0,2.0,75,0.00,,CLR,0.00,VWS V14.01,2013-05-24 08:01:00,
2013-05-24 04:06:00,62.9,54.9,30.03,SW,225,0.0,3.0,75,0.00,,CLR,0.00,VWS V14.01,2013-05-24 08:06:00,
2013-05-24 04:11:00,62.8,54.8,30.03,NE,34,0.0,5.0,75,0.00,,CLR,0.00,VWS V14.01,2013-05-24 08:11:00,
2013-05-24 04:16:00,62.8,55.1,30.03,West,267,0.0,5.0,76,0.00,,CLR,0.00,VWS V14.01,2013-05-24 08:16:00,
2013-05-24 04:21:00,62.6,54.6,30.04,North,360,1.0,6.0,75,0.00,,CLR,0.00,VWS V14.01,2013-05-24 08:21:00,
2013-05-24 04:26:00,62.5,54.8,30.04,West,281,0.0,6.0,76,0.00,,CLR,0.00,VWS V14.01,2013-05-24 08:26:00,
2013-05-24 04:30:00,62.5,54.8,30.04,SW,235,4.0,6.0,76,0.00,,CLR,0.00,VWS V14.01,2013-05-24 08:30:00,
2013-05-24 04:31:00,62.5,55.2,30.04,WSW,258,1.0,4.0,77,0.00,,CLR,0.00,VWS V14.01,2013-05-24 08:31:00,
2013-05-24 04:36:00,62.4,54.8,30.04,West,277,2.0,4.0,76,0.00,,CLR,0.00,VWS V14.01,2013-05-24 08:36:00,
2013-05-24 04:41:00,62.4,54.8,30.04,NW,315,0.0,4.0,76,0.00,,CLR,0.00,VWS V14.01,2013-05-24 08:41:00,
2013-05-24 04:46:00,62.3,54.7,30.04,NNW,348,0.0,5.0,76,0.00,,CLR,0.00,VWS V14.01,2013-05-24 08:46:00,
2013-05-24 04:51:00,62.3,54.7,30.03,WSW,250,0.0,6.0,76,0.00,,CLR,0.00,VWS V14.01,2013-05-24 08:51:00,
2013-05-24 04:56:00,62.2,54.9,30.03,West,269,0.0,7.0,77,0.00,,CLR,0.00,VWS V14.01,2013-05-24 08:56:00,
2013-05-24 05:00:00,62.2,54.9,30.03,WNW,284,0.0,7.0,77,0.00,,CLR,0.00,VWS V14.01,2013-05-24 09:00:00,
2013-05-24 05:01:00,62.2,54.9,30.03,West,263,2.0,6.0,77,0.00,,CLR,0.00,VWS V14.01,2013-05-24 09:01:00,
2013-05-24 05:06:00,62.2,54.9,30.03,NNE,15,3.0,7.0,77,0.00,,CLR,0.00,VWS V14.01,2013-05-24 09:06:00,
2013-05-24 05:11:00,62.2,54.9,30.03,West,275,0.0,7.0,77,0.00,,CLR,0.00,VWS V14.01,2013-05-24 09:11:00,
2013-05-24 05:16:00,62.1,54.8,30.04,NW,304,0.0,9.0,77,0.00,,CLR,0.00,VWS V14.01,2013-05-24 09:16:00,
2013-05-24 05:21:00,62.1,54.8,30.04,North,10,0.0,9.0,77,0.00,,CLR,0.00,VWS V14.01,2013-05-24 09:21:00,
2013-05-24 05:26:00,62.0,54.7,30.04,WSW,246,3.0,9.0,77,0.00,,CLR,0.00,VWS V14.01,2013-05-24 09:26:00,
2013-05-24 05:30:00,62.0,54.7,30.04,NW,309,0.0,9.0,77,0.00,,CLR,0.00,VWS V14.01,2013-05-24 09:30:00,
2013-05-24 05:31:00,62.0,54.7,30.04,West,265,2.0,4.0,77,0.00,,CLR,0.00,VWS V14.01,2013-05-24 09:31:00,
2013-05-24 05:36:00,61.9,54.6,30.04,NW,323,0.0,4.0,77,0.00,,CLR,0.00,VWS V14.01,2013-05-24 09:36:00,
2013-05-24 05:41:00,61.8,54.9,30.04,West,267,0.0,5.0,78,0.00,,CLR,0.00,VWS V14.01,2013-05-24 09:41:00,
2013-05-24 05:46:00,61.8,54.9,30.04,SW,236,0.0,5.0,78,0.00,,CLR,0.00,VWS V14.01,2013-05-24 09:46:00,
2013-05-24 05:51:00,61.7,54.8,30.05,WSW,251,5.0,6.0,78,0.00,,CLR,0.00,VWS V14.01,2013-05-24 09:51:00,
2013-05-24 05:56:00,61.6,54.7,30.05,SW,226,3.0,6.0,78,0.00,,CLR,0.00,VWS V14.01,2013-05-24 09:56:00,
2013-05-24 06:00:00,61.6,54.7,30.05,WSW,247,0.0,6.0,78,0.00,,CLR,0.00,VWS V14.01,2013-05-24 10:00:00,
2013-05-24 06:01:00,61.6,54.7,30.05,West,279,1.0,3.0,78,0.00,,CLR,0.00,VWS V14.01,2013-05-24 10:01:00,
2013-05-24 06:06:00,61.4,54.5,30.05,WSW,241,3.0,6.0,78,0.00,,CLR,0.00,VWS V14.01,2013-05-24 10:06:00,
2013-05-24 06:11:00,61.3,54.7,30.05,West,269,2.0,6.0,79,0.00,,CLR,0.00,VWS V14.01,2013-05-24 10:11:00,
2013-05-24 06:16:00,61.2,54.6,30.05,WSW,256,5.0,8.0,79,0.00,,CLR,0.00,VWS V14.01,2013-05-24 10:16:00,
2013-05-24 06:21:00,61.1,54.5,30.05,SW,229,2.0,8.0,79,0.00,,CLR,0.00,VWS V14.01,2013-05-24 10:21:00,
2013-05-24 06:26:00,61.0,54.5,30.06,WNW,298,0.0,8.0,79,0.00,,CLR,0.00,VWS V14.01,2013-05-24 10:26:00,
2013-05-24 06:30:00,61.0,54.8,30.06,WNW,301,0.0,8.0,80,0.00,,CLR,0.00,VWS V14.01,2013-05-24 10:30:00,
2013-05-24 06:31:00,61.0,54.8,30.06,NNE,19,0.0,3.0,80,0.00,,CLR,0.00,VWS V14.01,2013-05-24 10:31:00,
2013-05-24 06:36:00,60.9,54.7,30.06,WNW,288,2.0,5.0,80,0.00,,CLR,0.00,VWS V14.01,2013-05-24 10:36:00,
2013-05-24 06:41:00,60.8,54.6,30.06,NNE,13,1.0,6.0,80,0.00,,CLR,0.00,VWS V14.01,2013-05-24 10:41:00,
2013-05-24 06:46:00,60.8,54.6,30.07,NNW,346,0.0,6.0,80,0.00,,CLR,0.00,VWS V14.01,2013-05-24 10:46:00,
2013-05-24 06:51:00,60.7,54.8,30.07,North,360,4.0,6.0,81,0.00,,CLR,0.00,VWS V14.01,2013-05-24 10:51:00,
2013-05-24 06:56:00,60.7,54.8,30.07,West,278,4.0,9.0,81,0.00,,CLR,0.00,VWS V14.01,2013-05-24 10:56:00,
2013-05-24 07:00:00,60.7,54.5,30.07,NNE,26,1.0,9.0,80,0.00,,CLR,0.00,VWS V14.01,2013-05-24 11:00:00,
2013-05-24 07:01:00,60.7,54.5,30.07,North,355,0.0,3.0,80,0.00,,CLR,0.00,VWS V14.01,2013-05-24 11:01:00,
2013-05-24 07:05:00,60.6,54.8,30.07,West,279,3.0,6.0,81,0.00,,CLR,0.00,VWS V14.01,2013-05-24 11:05:00,
2013-05-24 07:10:00,60.5,54.7,30.07,SW,235,0.0,6.0,81,0.00,,CLR,0.00,VWS V14.01,2013-05-24 11:10:00,
2013-05-24 07:15:00,60.5,54.7,30.08,West,271,0.0,6.0,81,0.00,,CLR,0.00,VWS V14.01,2013-05-24 11:15:00,
2013-05-24 07:20:00,60.5,54.7,30.08,NW,322,3.0,7.0,81,0.00,,CLR,0.00,VWS V14.01,2013-05-24 11:20:00,
2013-05-24 07:25:00,60.6,55.1,30.08,North,5,0.0,7.0,82,0.00,,CLR,0.00,VWS V14.01,2013-05-24 11:25:00,
2013-05-24 07:30:00,60.7,54.8,30.08,WNW,302,0.0,5.0,81,0.00,,CLR,0.00,VWS V14.01,2013-05-24 11:30:00,
2013-05-24 07:35:00,60.9,55.0,30.08,West,274,3.0,5.0,81,0.00,,CLR,0.00,VWS V14.01,2013-05-24 11:35:00,
2013-05-24 07:40:00,61.0,54.8,30.08,NNW,343,1.0,6.0,80,0.00,,CLR,0.00,VWS V14.01,2013-05-24 11:40:00,
2013-05-24 07:45:00,61.2,55.0,30.09,NW,314,0.0,6.0,80,0.00,,CLR,0.00,VWS V14.01,2013-05-24 11:45:00,
2013-05-24 07:50:00,61.4,55.5,30.09,ESE,105,1.0,6.0,81,0.00,,CLR,0.00,VWS V14.01,2013-05-24 11:50:00,
2013-05-24 07:55:00,61.6,55.4,30.09,North,10,3.0,9.0,80,0.00,,CLR,0.00,VWS V14.01,2013-05-24 11:55:00,
2013-05-24 08:00:00,61.9,55.3,30.09,NW,316,2.0,5.0,79,0.00,,CLR,0.00,VWS V14.01,2013-05-24 12:00:00,
2013-05-24 08:05:00,62.2,56.0,30.09,WSW,257,0.0,5.0,80,0.00,,CLR,0.00,VWS V14.01,2013-05-24 12:05:00,
2013-05-24 08:10:00,62.4,55.5,30.09,West,271,0.0,6.0,78,0.00,,CLR,0.00,VWS V14.01,2013-05-24 12:10:00,
2013-05-24 08:15:00,62.9,55.9,30.09,NE,40,1.0,7.0,78,0.00,,CLR,0.00,VWS V14.01,2013-05-24 12:15:00,
2013-05-24 08:20:00,63.5,56.2,30.10,West,269,4.0,7.0,77,0.00,,CLR,0.00,VWS V14.01,2013-05-24 12:20:00,
2013-05-24 08:25:00,63.8,56.1,30.10,NNE,28,4.0,8.0,76,0.00,,CLR,0.00,VWS V14.01,2013-05-24 12:25:00,
2013-05-24 08:30:00,64.2,56.1,30.10,West,280,2.0,5.0,75,0.00,,CLR,0.00,VWS V14.01,2013-05-24 12:30:00,
2013-05-24 08:35:00,64.8,56.3,30.10,NNE,19,6.0,8.0,74,0.00,,CLR,0.00,VWS V14.01,2013-05-24 12:35:00,
2013-05-24 08:40:00,65.0,56.2,30.10,ENE,75,0.0,10.0,73,0.00,,CLR,0.00,VWS V14.01,2013-05-24 12:40:00,
2013-05-24 08:45:00,65.2,56.3,30.10,ENE,57,1.0,10.0,73,0.00,,CLR,0.00,VWS V14.01,2013-05-24 12:45:00,
2013-05-24 08:50:00,65.6,56.7,30.10,NW,305,0.0,10.0,73,0.00,,CLR,0.00,VWS V14.01,2013-05-24 12:50:00,
2013-05-24 08:55:00,66.0,56.7,30.11,NNW,332,2.0,10.0,72,0.00,,CLR,0.00,VWS V14.01,2013-05-24 12:55:00,
2013-05-24 09:00:00,66.1,56.0,30.11,NNW,337,10.0,10.0,70,0.00,,CLR,0.00,VWS V14.01,2013-05-24 13:00:00,
2013-05-24 09:05:00,66.4,56.3,30.12,WNW,284,2.0,13.0,70,0.00,,CLR,0.00,VWS V14.01,2013-05-24 13:05:00,
2013-05-24 09:10:00,66.7,56.6,30.12,NNE,24,0.0,13.0,70,0.00,,CLR,0.00,VWS V14.01,2013-05-24 13:10:00,
2013-05-24 09:15:00,66.9,56.8,30.12,SE,140,0.0,13.0,70,0.00,,CLR,0.00,VWS V14.01,2013-05-24 13:15:00,
2013-05-24 09:20:00,67.1,56.2,30.13,NE,53,0.0,13.0,68,0.00,,CLR,0.00,VWS V14.01,2013-05-24 13:20:00,
2013-05-24 09:25:00,67.3,56.4,30.13,West,277,1.0,13.0,68,0.00,,CLR,0.00,VWS V14.01,2013-05-24 13:25:00,
2013-05-24 09:30:00,67.2,55.9,30.13,NNE,17,3.0,3.0,67,0.00,,CLR,0.00,VWS V14.01,2013-05-24 13:30:00,
2013-05-24 09:35:00,67.8,56.5,30.13,WNW,294,2.0,7.0,67,0.00,,CLR,0.00,VWS V14.01,2013-05-24 13:35:00,
2013-05-24 09:40:00,68.2,56.4,30.13,NE,46,2.0,10.0,66,0.00,,CLR,0.00,VWS V14.01,2013-05-24 13:40:00,
2013-05-24 09:45:00,68.5,55.9,30.13,NW,313,4.0,13.0,64,0.00,,CLR,0.00,VWS V14.01,2013-05-24 13:45:00,
2013-05-24 09:50:00,68.4,55.3,30.13,NNE,32,4.0,14.0,63,0.00,,CLR,0.00,VWS V14.01,2013-05-24 13:50:00,
2013-05-24 09:55:00,68.1,55.0,30.13,NNE,28,1.0,14.0,63,0.00,,CLR,0.00,VWS V14.01,2013-05-24 13:55:00,
2013-05-24 10:00:00,68.6,56.4,30.13,WNW,300,1.0,5.0,65,0.00,,CLR,0.00,VWS V14.01,2013-05-24 14:00:00,
2013-05-24 10:05:00,68.9,55.8,30.14,ENE,67,0.0,11.0,63,0.00,,CLR,0.00,VWS V14.01,2013-05-24 14:05:00,
2013-05-24 10:10:00,69.2,55.6,30.14,SSW,193,1.0,11.0,62,0.00,,CLR,0.00,VWS V14.01,2013-05-24 14:10:00,
2013-05-24 10:15:00,69.7,55.2,30.14,NNE,30,0.0,11.0,60,0.00,,CLR,0.00,VWS V14.01,2013-05-24 14:15:00,
2013-05-24 10:20:00,70.1,53.7,30.14,NNE,28,10.0,12.0,56,0.00,,CLR,0.00,VWS V14.01,2013-05-24 14:20:00,
2013-05-24 10:25:00,70.2,54.8,30.14,West,263,4.0,12.0,58,0.00,,CLR,0.00,VWS V14.01,2013-05-24 14:25:00,
2013-05-24 10:30:00,70.3,55.3,30.14,SSW,200,2.0,9.0,59,0.00,,CLR,0.00,VWS V14.01,2013-05-24 14:30:00,
2013-05-24 10:35:00,70.2,54.8,30.15,NE,40,1.0,10.0,58,0.00,,CLR,0.00,VWS V14.01,2013-05-24 14:35:00,
2013-05-24 10:40:00,70.3,54.4,30.15,SW,216,3.0,10.0,57,0.00,,CLR,0.00,VWS V14.01,2013-05-24 14:40:00,
2013-05-24 10:45:00,70.3,53.9,30.15,North,5,0.0,11.0,56,0.00,,CLR,0.00,VWS V14.01,2013-05-24 14:45:00,
2013-05-24 10:50:00,70.4,53.5,30.15,North,5,8.0,11.0,55,0.00,,CLR,0.00,VWS V14.01,2013-05-24 14:50:00,
2013-05-24 10:55:00,70.6,53.7,30.15,NE,46,8.0,12.0,55,0.00,,CLR,0.00,VWS V14.01,2013-05-24 14:55:00,
2013-05-24 11:00:00,70.6,53.2,30.15,NNE,19,4.0,11.0,54,0.00,,CLR,0.00,VWS V14.01,2013-05-24 15:00:00,
2013-05-24 11:05:00,70.8,53.3,30.15,North,360,6.0,12.0,54,0.00,,CLR,0.00,VWS V14.01,2013-05-24 15:05:00,
2013-05-24 11:10:00,70.8,54.3,30.15,NNE,22,4.0,12.0,56,0.00,,CLR,0.00,VWS V14.01,2013-05-24 15:10:00,
2013-05-24 11:15:00,71.3,53.3,30.16,East,86,1.0,17.0,53,0.00,,CLR,0.00,VWS V14.01,2013-05-24 15:15:00,
2013-05-24 11:20:00,71.8,53.2,30.16,NNE,17,1.0,17.0,52,0.00,,CLR,0.00,VWS V14.01,2013-05-24 15:20:00,
2013-05-24 11:25:00,72.0,53.4,30.16,NNE,24,1.0,17.0,52,0.00,,CLR,0.00,VWS V14.01,2013-05-24 15:25:00,
2013-05-24 11:30:00,72.1,53.5,30.17,NNW,336,1.0,7.0,52,0.00,,CLR,0.00,VWS V14.01,2013-05-24 15:30:00,
2013-05-24 11:35:00,71.9,52.8,30.17,NNE,20,6.0,18.0,51,0.00,,CLR,0.00,VWS V14.01,2013-05-24 15:35:00,
2013-05-24 11:40:00,71.5,51.4,30.17,NNE,26,8.0,18.0,49,0.00,,CLR,0.00,VWS V14.01,2013-05-24 15:40:00,
2013-05-24 11:45:00,71.5,50.8,30.17,WSW,246,7.0,18.0,48,0.00,,CLR,0.00,VWS V14.01,2013-05-24 15:45:00,
2013-05-24 11:50:00,71.7,51.0,30.17,SW,231,5.0,18.0,48,0.00,,CLR,0.00,VWS V14.01,2013-05-24 15:50:00,
2013-05-24 11:55:00,71.7,51.0,30.17,West,268,6.0,18.0,48,0.00,,CLR,0.00,VWS V14.01,2013-05-24 15:55:00,
2013-05-24 12:00:00,71.5,50.8,30.17,West,261,4.0,7.0,48,0.00,,CLR,0.00,VWS V14.01,2013-05-24 16:00:00,
2013-05-24 12:05:00,71.7,51.5,30.17,NNE,19,1.0,13.0,49,0.00,,CLR,0.00,VWS V14.01,2013-05-24 16:05:00,
2013-05-24 12:10:00,72.3,51.5,30.17,SW,223,2.0,13.0,48,0.00,,CLR,0.00,VWS V14.01,2013-05-24 16:10:00,
2013-05-24 12:15:00,72.3,49.8,30.17,South,191,0.0,19.0,45,0.00,,CLR,0.00,VWS V14.01,2013-05-24 16:15:00,
2013-05-24 12:20:00,72.8,51.4,30.17,WNW,299,0.0,19.0,47,0.00,,CLR,0.00,VWS V14.01,2013-05-24 16:20:00,
2013-05-24 12:25:00,73.3,51.3,30.18,SSE,164,1.0,19.0,46,0.00,,CLR,0.00,VWS V14.01,2013-05-24 16:25:00,
2013-05-24 12:30:00,72.6,50.7,30.18,NNE,20,3.0,6.0,46,0.00,,CLR,0.00,VWS V14.01,2013-05-24 16:30:00,
2013-05-24 12:36:00,72.6,50.1,30.18,ENE,61,4.0,12.0,45,0.00,,CLR,0.00,VWS V14.01,2013-05-24 16:36:00,
2013-05-24 12:41:00,72.5,50.6,30.17,NNE,22,2.0,13.0,46,0.00,,CLR,0.00,VWS V14.01,2013-05-24 16:41:00,
2013-05-24 12:46:00,73.0,51.0,30.17,South,170,3.0,13.0,46,0.00,,CLR,0.00,VWS V14.01,2013-05-24 16:46:00,
2013-05-24 12:51:00,73.3,50.7,30.17,NNE,20,5.0,13.0,45,0.00,,CLR,0.00,VWS V14.01,2013-05-24 16:51:00,
2013-05-24 12:56:00,73.7,50.5,30.17,NNW,346,4.0,13.0,44,0.00,,CLR,0.00,VWS V14.01,2013-05-24 16:56:00,
2013-05-24 13:00:00,73.6,51.0,30.17,West,259,3.0,6.0,45,0.00,,CLR,0.00,VWS V14.01,2013-05-24 17:00:00,
2013-05-24 13:05:00,74.0,49.5,30.17,WSW,247,3.0,10.0,42,0.00,,CLR,0.00,VWS V14.01,2013-05-24 17:05:00,
2013-05-24 13:10:00,74.3,51.0,30.17,SSE,149,11.0,11.0,44,0.00,,CLR,0.00,VWS V14.01,2013-05-24 17:10:00,
2013-05-24 13:15:00,74.3,51.0,30.17,SW,235,2.0,12.0,44,0.00,,CLR,0.00,VWS V14.01,2013-05-24 17:15:00,
2013-05-24 13:20:00,74.2,49.0,30.17,North,360,5.0,12.0,41,0.00,,CLR,0.00,VWS V14.01,2013-05-24 17:20:00,
2013-05-24 13:25:00,74.3,51.0,30.17,SW,229,2.0,12.0,44,0.00,,CLR,0.00,VWS V14.01,2013-05-24 17:25:00,
2013-05-24 13:30:00,74.7,49.5,30.17,SW,218,1.0,6.0,41,0.00,,CLR,0.00,VWS V14.01,2013-05-24 17:30:00,
2013-05-24 13:35:00,74.8,50.2,30.17,WSW,252,3.0,11.0,42,0.00,,CLR,0.00,VWS V14.01,2013-05-24 17:35:00,
2013-05-24 13:40:00,74.6,50.7,30.17,WNW,288,7.0,11.0,43,0.00,,CLR,0.00,VWS V14.01,2013-05-24 17:40:00,
2013-05-24 13:45:00,75.0,51.0,30.17,WSW,258,3.0,11.0,43,0.00,,CLR,0.00,VWS V14.01,2013-05-24 17:45:00,
2013-05-24 13:50:00,75.3,50.0,30.17,ENE,62,3.0,11.0,41,0.00,,CLR,0.00,VWS V14.01,2013-05-24 17:50:00,
2013-05-24 13:55:00,75.5,50.8,30.17,NW,305,4.0,11.0,42,0.00,,CLR,0.00,VWS V14.01,2013-05-24 17:55:00,
2013-05-24 14:00:00,75.1,50.5,30.17,NNW,346,5.0,6.0,42,0.00,,CLR,0.00,VWS V14.01,2013-05-24 18:00:00,
2013-05-24 14:05:00,75.9,53.1,30.17,NNE,30,0.0,6.0,45,0.00,,CLR,0.00,VWS V14.01,2013-05-24 18:05:00,
2013-05-24 14:10:00,76.7,51.2,30.17,NNE,29,0.0,7.0,41,0.00,,CLR,0.00,VWS V14.01,2013-05-24 18:10:00,
2013-05-24 14:15:00,76.4,50.3,30.17,NE,34,3.0,7.0,40,0.00,,CLR,0.00,VWS V14.01,2013-05-24 18:15:00,
2013-05-24 14:20:00,76.1,50.7,30.17,SW,229,0.0,9.0,41,0.00,,CLR,0.00,VWS V14.01,2013-05-24 18:20:00,
2013-05-24 14:25:00,76.1,51.4,30.16,NNE,28,8.0,9.0,42,0.00,,CLR,0.00,VWS V14.01,2013-05-24 18:25:00,
2013-05-24 14:30:00,76.0,51.3,30.17,NE,51,2.0,6.0,42,0.00,,CLR,0.00,VWS V14.01,2013-05-24 18:30:00,
2013-05-24 14:35:00,75.3,50.0,30.17,West,259,1.0,11.0,41,0.00,,CLR,0.00,VWS V14.01,2013-05-24 18:35:00,
2013-05-24 14:40:00,74.9,49.0,30.17,NNW,344,5.0,11.0,40,0.00,,CLR,0.00,VWS V14.01,2013-05-24 18:40:00,
2013-05-24 14:45:00,75.7,52.3,30.17,WNW,284,0.0,11.0,44,0.00,,CLR,0.00,VWS V14.01,2013-05-24 18:45:00,
2013-05-24 14:50:00,76.9,52.7,30.17,SE,144,1.0,11.0,43,0.00,,CLR,0.00,VWS V14.01,2013-05-24 18:50:00,
2013-05-24 14:55:00,77.8,51.6,30.17,North,9,6.0,11.0,40,0.00,,CLR,0.00,VWS V14.01,2013-05-24 18:55:00,
2013-05-24 15:00:00,77.7,50.8,30.16,ENE,67,4.0,8.0,39,0.00,,CLR,0.00,VWS V14.01,2013-05-24 19:00:00,
2013-05-24 15:05:00,77.7,50.8,30.16,SW,223,4.0,10.0,39,0.00,,CLR,0.00,VWS V14.01,2013-05-24 19:05:00,
2013-05-24 15:10:00,77.5,51.3,30.16,SW,233,1.0,10.0,40,0.00,,CLR,0.00,VWS V14.01,2013-05-24 19:10:00,
2013-05-24 15:15:00,77.9,51.7,30.16,ESE,113,1.0,10.0,40,0.00,,CLR,0.00,VWS V14.01,2013-05-24 19:15:00,
2013-05-24 15:20:00,78.0,51.1,30.16,WSW,246,5.0,10.0,39,0.00,,CLR,0.00,VWS V14.01,2013-05-24 19:20:00,
2013-05-24 15:25:00,77.5,51.3,30.17,NW,313,6.0,10.0,40,0.00,,CLR,0.00,VWS V14.01,2013-05-24 19:25:00,
2013-05-24 15:30:00,76.9,50.8,30.16,West,261,0.0,3.0,40,0.00,,CLR,0.00,VWS V14.01,2013-05-24 19:30:00,
2013-05-24 15:35:00,77.3,49.0,30.17,NE,41,2.0,8.0,37,0.00,,CLR,0.00,VWS V14.01,2013-05-24 19:35:00,
2013-05-24 15:40:00,77.2,49.7,30.16,NE,55,1.0,8.0,38,0.00,,CLR,0.00,VWS V14.01,2013-05-24 19:40:00,
2013-05-24 15:45:00,77.6,50.7,30.16,SE,132,1.0,9.0,39,0.00,,CLR,0.00,VWS V14.01,2013-05-24 19:45:00,
2013-05-24 15:50:00,77.6,50.0,30.16,SW,226,0.0,9.0,38,0.00,,CLR,0.00,VWS V14.01,2013-05-24 19:50:00,
2013-05-24 15:55:00,77.7,49.4,30.16,NNE,29,0.0,9.0,37,0.00,,CLR,0.00,VWS V14.01,2013-05-24 19:55:00,
2013-05-24 16:00:00,78.3,47.7,30.16,WSW,256,4.0,8.0,34,0.00,,CLR,0.00,VWS V14.01,2013-05-24 20:00:00,
2013-05-24 16:05:00,78.2,49.1,30.16,WSW,242,5.0,8.0,36,0.00,,CLR,0.00,VWS V14.01,2013-05-24 20:05:00,
2013-05-24 16:10:00,77.9,50.3,30.16,SW,215,1.0,8.0,38,0.00,,CLR,0.00,VWS V14.01,2013-05-24 20:10:00,
2013-05-24 16:15:00,78.3,50.6,30.16,North,5,8.0,8.0,38,0.00,,CLR,0.00,VWS V14.01,2013-05-24 20:15:00,
2013-05-24 16:20:00,78.6,44.6,30.17,WNW,297,1.0,10.0,30,0.00,,CLR,0.00,VWS V14.01,2013-05-24 20:20:00,
2013-05-24 16:25:00,78.7,44.7,30.16,WSW,257,4.0,10.0,30,0.00,,CLR,0.00,VWS V14.01,2013-05-24 20:25:00,
2013-05-24 16:30:00,78.4,45.3,30.16,West,264,1.0,3.0,31,0.00,,CLR,0.00,VWS V14.01,2013-05-24 20:30:00,
2013-05-24 16:35:00,78.7,49.5,30.16,WNW,294,11.0,11.0,36,0.00,,CLR,0.00,VWS V14.01,2013-05-24 20:35:00,
2013-05-24 16:40:00,77.8,49.5,30.16,NNW,332,1.0,11.0,37,0.00,,CLR,0.00,VWS V14.01,2013-05-24 20:40:00,
2013-05-24 16:45:00,77.8,48.0,30.16,West,262,0.0,11.0,35,0.00,,CLR,0.00,VWS V14.01,2013-05-24 20:45:00,
2013-05-24 16:50:00,77.9,44.9,30.16,North,5,1.0,11.0,31,0.00,,CLR,0.00,VWS V14.01,2013-05-24 20:50:00,
2013-05-24 16:55:00,78.3,46.9,30.17,WSW,243,2.0,11.0,33,0.00,,CLR,0.00,VWS V14.01,2013-05-24 20:55:00,
2013-05-24 17:00:00,78.3,44.3,30.16,WSW,238,1.0,5.0,30,0.00,,CLR,0.00,VWS V14.01,2013-05-24 21:00:00,
2013-05-24 17:05:00,78.4,46.1,30.16,SSE,157,2.0,8.0,32,0.00,,CLR,0.00,VWS V14.01,2013-05-24 21:05:00,
2013-05-24 17:10:00,78.4,49.3,30.17,WSW,250,4.0,8.0,36,0.00,,CLR,0.00,VWS V14.01,2013-05-24 21:10:00,
2013-05-24 17:15:00,77.9,51.0,30.16,WSW,244,2.0,8.0,39,0.00,,CLR,0.00,VWS V14.01,2013-05-24 21:15:00,
2013-05-24 17:20:00,77.5,50.6,30.17,NNE,13,1.0,8.0,39,0.00,,CLR,0.00,VWS V14.01,2013-05-24 21:20:00,
2013-05-24 17:25:00,77.3,50.4,30.17,West,280,0.0,11.0,39,0.00,,CLR,0.00,VWS V14.01,2013-05-24 21:25:00,
2013-05-24 17:30:00,77.7,51.5,30.17,West,265,2.0,4.0,40,0.00,,CLR,0.00,VWS V14.01,2013-05-24 21:30:00,
2013-05-24 17:35:00,77.3,51.1,30.17,NNE,18,3.0,5.0,40,0.00,,CLR,0.00,VWS V14.01,2013-05-24 21:35:00,
2013-05-24 17:40:00,77.0,49.5,30.17,West,276,5.0,10.0,38,0.00,,CLR,0.00,VWS V14.01,2013-05-24 21:40:00,
2013-05-24 17:45:00,76.3,50.2,30.17,North,355,5.0,11.0,40,0.00,,CLR,0.00,VWS V14.01,2013-05-24 21:45:00,
2013-05-24 17:50:00,76.1,50.0,30.17,SW,214,1.0,11.0,40,0.00,,CLR,0.00,VWS V14.01,2013-05-24 21:50:00,
2013-05-24 17:55:00,75.8,50.5,30.17,WSW,242,5.0,11.0,41,0.00,,CLR,0.00,VWS V14.01,2013-05-24 21:55:00,
2013-05-24 18:00:00,75.7,49.7,30.17,WSW,255,0.0,11.0,40,0.00,,CLR,0.00,VWS V14.01,2013-05-24 22:00:00,
2013-05-24 18:05:00,75.4,50.7,30.17,SW,236,1.0,11.0,42,0.00,,CLR,0.00,VWS V14.01,2013-05-24 22:05:00,
2013-05-24 18:10:00,75.7,51.0,30.17,NNE,26,0.0,11.0,42,0.00,,CLR,0.00,VWS V14.01,2013-05-24 22:10:00,
2013-05-24 18:15:00,75.5,50.8,30.17,NNW,346,1.0,14.0,42,0.00,,CLR,0.00,VWS V14.01,2013-05-24 22:15:00,
2013-05-24 18:20:00,75.4,48.8,30.17,WSW,252,1.0,14.0,39,0.00,,CLR,0.00,VWS V14.01,2013-05-24 22:20:00,
2013-05-24 18:25:00,75.4,50.1,30.17,WSW,241,6.0,14.0,41,0.00,,CLR,0.00,VWS V14.01,2013-05-24 22:25:00,
2013-05-24 18:30:00,75.1,49.2,30.17,SW,228,3.0,7.0,40,0.00,,CLR,0.00,VWS V14.01,2013-05-24 22:30:00,
2013-05-24 18:35:00,74.8,49.5,30.17,NNE,20,6.0,10.0,41,0.00,,CLR,0.00,VWS V14.01,2013-05-24 22:35:00,
2013-05-24 18:40:00,74.5,49.3,30.17,WNW,296,1.0,10.0,41,0.00,,CLR,0.00,VWS V14.01,2013-05-24 22:40:00,
2013-05-24 18:45:00,74.2,49.0,30.17,SSW,205,7.0,10.0,41,0.00,,CLR,0.00,VWS V14.01,2013-05-24 22:45:00,
2013-05-24 18:50:00,73.9,48.1,30.17,WSW,253,3.0,10.0,40,0.00,,CLR,0.00,VWS V14.01,2013-05-24 22:50:00,
2013-05-24 18:55:00,73.7,48.6,30.17,NNE,24,0.0,10.0,41,0.00,,CLR,0.00,VWS V14.01,2013-05-24 22:55:00,
2013-05-24 19:00:00,73.7,48.6,30.17,NNW,342,10.0,12.0,41,0.00,,CLR,0.00,VWS V14.01,2013-05-24 23:00:00,
2013-05-24 19:05:00,73.5,48.4,30.17,West,281,0.0,12.0,41,0.00,,CLR,0.00,VWS V14.01,2013-05-24 23:05:00,
2013-05-24 19:10:00,73.3,48.8,30.17,WSW,244,2.0,12.0,42,0.00,,CLR,0.00,VWS V14.01,2013-05-24 23:10:00,
2013-05-24 19:15:00,72.9,49.7,30.17,NNE,28,3.0,12.0,44,0.00,,CLR,0.00,VWS V14.01,2013-05-24 23:15:00,
2013-05-24 19:20:00,72.8,47.8,30.17,NNW,344,0.0,12.0,41,0.00,,CLR,0.00,VWS V14.01,2013-05-24 23:20:00,
2013-05-24 19:25:00,72.7,47.7,30.17,North,10,0.0,12.0,41,0.00,,CLR,0.00,VWS V14.01,2013-05-24 23:25:00,
2013-05-24 19:30:00,72.8,47.8,30.18,NNW,348,0.0,1.0,41,0.00,,CLR,0.00,VWS V14.01,2013-05-24 23:30:00,
2013-05-24 19:35:00,72.7,47.7,30.18,ENE,76,0.0,12.0,41,0.00,,CLR,0.00,VWS V14.01,2013-05-24 23:35:00,
2013-05-24 19:40:00,71.8,46.9,30.18,NNE,30,2.0,12.0,41,0.00,,CLR,0.00,VWS V14.01,2013-05-24 23:40:00,
2013-05-24 19:45:00,71.2,46.3,30.18,NNW,348,0.0,12.0,41,0.00,,CLR,0.00,VWS V14.01,2013-05-24 23:45:00,
2013-05-24 19:50:00,70.6,47.0,30.18,NNE,22,0.0,12.0,43,0.00,,CLR,0.00,VWS V14.01,2013-05-24 23:50:00,
2013-05-24 19:55:00,70.0,46.5,30.18,WNW,290,1.0,12.0,43,0.00,,CLR,0.00,VWS V14.01,2013-05-24 23:55:00,
2013-05-24 20:00:00,69.5,46.7,30.19,North,355,0.0,0.0,44,0.00,,CLR,0.00,VWS V14.01,2013-05-25 00:00:00,
2013-05-24 20:05:00,69.1,47.5,30.19,SW,223,0.0,4.0,46,0.00,,CLR,0.00,VWS V14.01,2013-05-25 00:05:00,
2013-05-24 20:10:00,68.6,46.4,30.19,West,273,0.0,5.0,45,0.00,,CLR,0.00,VWS V14.01,2013-05-25 00:10:00,
2013-05-24 20:15:00,68.3,47.3,30.19,West,273,1.0,5.0,47,0.00,,CLR,0.00,VWS V14.01,2013-05-25 00:15:00,
2013-05-24 20:20:00,68.0,47.6,30.19,SW,236,0.0,5.0,48,0.00,,CLR,0.00,VWS V14.01,2013-05-25 00:20:00,
2013-05-24 20:25:00,67.7,47.3,30.19,NNW,333,0.0,5.0,48,0.00,,CLR,0.00,VWS V14.01,2013-05-25 00:25:00,
2013-05-24 20:30:00,67.4,48.1,30.19,NNW,332,0.0,0.0,50,0.00,,CLR,0.00,VWS V14.01,2013-05-25 00:30:00,
2013-05-24 20:35:00,66.9,48.7,30.20,WSW,250,0.0,2.0,52,0.00,,CLR,0.00,VWS V14.01,2013-05-25 00:35:00,
2013-05-24 20:40:00,66.6,47.9,30.20,WNW,286,1.0,5.0,51,0.00,,CLR,0.00,VWS V14.01,2013-05-25 00:40:00,
2013-05-24 20:45:00,66.1,48.0,30.19,ESE,114,0.0,5.0,52,0.00,,CLR,0.00,VWS V14.01,2013-05-25 00:45:00,
2013-05-24 20:50:00,65.8,47.2,30.19,ESE,114,0.0,5.0,51,0.00,,CLR,0.00,VWS V14.01,2013-05-25 00:50:00,
2013-05-24 20:55:00,65.5,47.9,30.19,ESE,114,0.0,5.0,53,0.00,,CLR,0.00,VWS V14.01,2013-05-25 00:55:00,
2013-05-24 21:00:00,65.1,48.1,30.20,ESE,114,0.0,0.0,54,0.00,,CLR,0.00,VWS V14.01,2013-05-25 01:00:00,
2013-05-24 21:05:00,64.6,48.6,30.20,ESE,114,0.0,0.0,56,0.00,,CLR,0.00,VWS V14.01,2013-05-25 01:05:00,
2013-05-24 21:10:00,64.1,48.1,30.20,ESE,120,0.0,1.0,56,0.00,,CLR,0.00,VWS V14.01,2013-05-25 01:10:00,
2013-05-24 21:15:00,63.7,48.7,30.20,North,5,0.0,1.0,58,0.00,,CLR,0.00,VWS V14.01,2013-05-25 01:15:00,
2013-05-24 21:20:00,63.5,48.5,30.20,North,5,0.0,1.0,58,0.00,,CLR,0.00,VWS V14.01,2013-05-25 01:20:00,
2013-05-24 21:25:00,63.2,48.2,30.20,North,5,1.0,1.0,58,0.00,,CLR,0.00,VWS V14.01,2013-05-25 01:25:00,
2013-05-24 21:30:00,62.9,48.4,30.20,North,5,0.0,0.0,59,0.00,,CLR,0.00,VWS V14.01,2013-05-25 01:30:00,
2013-05-24 21:35:00,62.7,47.3,30.20,WNW,284,0.0,2.0,57,0.00,,CLR,0.00,VWS V14.01,2013-05-25 01:35:00,
2013-05-24 21:40:00,62.8,47.4,30.20,North,355,0.0,4.0,57,0.00,,CLR,0.00,VWS V14.01,2013-05-25 01:40:00,
2013-05-24 21:45:00,62.5,48.0,30.20,SW,234,0.0,4.0,59,0.00,,CLR,0.00,VWS V14.01,2013-05-25 01:45:00,
2013-05-24 21:50:00,62.3,48.7,30.21,South,171,0.0,4.0,61,0.00,,CLR,0.00,VWS V14.01,2013-05-25 01:50:00,
2013-05-24 21:55:00,61.9,48.8,30.21,South,171,0.0,4.0,62,0.00,,CLR,0.00,VWS V14.01,2013-05-25 01:55:00,
2013-05-24 22:00:00,61.5,48.8,30.21,South,171,0.0,0.0,63,0.00,,CLR,0.00,VWS V14.01,2013-05-25 02:00:00,
2013-05-24 22:05:00,61.1,48.8,30.21,South,171,0.0,0.0,64,0.00,,CLR,0.00,VWS V14.01,2013-05-25 02:05:00,
2013-05-24 22:10:00,60.9,47.4,30.21,North,5,0.0,3.0,61,0.00,,CLR,0.00,VWS V14.01,2013-05-25 02:10:00,
2013-05-24 22:15:00,61.0,48.3,30.21,NNE,20,5.0,5.0,63,0.00,,CLR,0.00,VWS V14.01,2013-05-25 02:15:00,
2013-05-24 22:20:00,61.1,48.4,30.22,ESE,119,0.0,5.0,63,0.00,,CLR,0.00,VWS V14.01,2013-05-25 02:20:00,
2013-05-24 22:25:00,61.0,47.5,30.22,WNW,284,0.0,5.0,61,0.00,,CLR,0.00,VWS V14.01,2013-05-25 02:25:00,
2013-05-24 22:30:00,60.9,47.4,30.22,WNW,290,0.0,0.0,61,0.00,,CLR,0.00,VWS V14.01,2013-05-25 02:30:00,
2013-05-24 22:35:00,60.7,47.6,30.22,West,277,0.0,3.0,62,0.00,,CLR,0.00,VWS V14.01,2013-05-25 02:35:00,
2013-05-24 22:40:00,60.6,46.7,30.22,West,269,0.0,3.0,60,0.00,,CLR,0.00,VWS V14.01,2013-05-25 02:40:00,
2013-05-24 22:45:00,60.5,47.9,30.22,West,269,0.0,3.0,63,0.00,,CLR,0.00,VWS V14.01,2013-05-25 02:45:00,
2013-05-24 22:50:00,60.4,47.3,30.23,WNW,284,0.0,3.0,62,0.00,,CLR,0.00,VWS V14.01,2013-05-25 02:50:00,
2013-05-24 22:55:00,60.4,46.9,30.22,NE,48,0.0,3.0,61,0.00,,CLR,0.00,VWS V14.01,2013-05-25 02:55:00,
2013-05-24 23:00:00,60.2,47.6,30.22,North,9,0.0,0.0,63,0.00,,CLR,0.00,VWS V14.01,2013-05-25 03:00:00,
2013-05-24 23:05:00,59.7,47.1,30.23,North,9,0.0,1.0,63,0.00,,CLR,0.00,VWS V14.01,2013-05-25 03:05:00,
2013-05-24 23:10:00,59.2,47.0,30.23,NE,34,0.0,1.0,64,0.00,,CLR,0.00,VWS V14.01,2013-05-25 03:10:00,
2013-05-24 23:15:00,58.9,47.2,30.22,NE,34,0.0,1.0,65,0.00,,CLR,0.00,VWS V14.01,2013-05-25 03:15:00,
2013-05-24 23:20:00,58.6,46.9,30.23,NE,34,0.0,1.0,65,0.00,,CLR,0.00,VWS V14.01,2013-05-25 03:20:00,
2013-05-24 23:25:00,58.1,47.2,30.23,NE,34,0.0,1.0,67,0.00,,CLR,0.00,VWS V14.01,2013-05-25 03:25:00,
2013-05-24 23:30:00,57.7,47.2,30.23,NE,34,0.0,0.0,68,0.00,,CLR,0.00,VWS V14.01,2013-05-25 03:30:00,
2013-05-24 23:35:00,57.3,47.2,30.23,NE,34,0.0,0.0,69,0.00,,CLR,0.00,VWS V14.01,2013-05-25 03:35:00,
2013-05-24 23:40:00,56.8,47.5,30.23,NE,34,0.0,0.0,71,0.00,,CLR,0.00,VWS V14.01,2013-05-25 03:40:00,
2013-05-24 23:45:00,56.5,47.6,30.24,NE,34,0.0,0.0,72,0.00,,CLR,0.00,VWS V14.01,2013-05-25 03:45:00,
2013-05-24 23:50:00,56.2,47.7,30.23,NE,34,0.0,0.0,73,0.00,,CLR,0.00,VWS V14.01,2013-05-25 03:50:00,
2013-05-24 23:55:00,55.8,48.0,30.24,NE,34,0.0,0.0,75,0.00,,CLR,0.00,VWS V14.01,2013-05-25 03:55:00,